Time,TemperatureF,DewpointF,PressureIn,WindDirection,WindDirectionDegrees,WindSpeedMPH,WindSpeedGustMPH,Humidity,HourlyPrecipIn,Conditions,Clouds,dailyrainin,SoftwareType,DateUTC
2013-01-24 00:00:00,-20.6,-33.7,30.16,North,357,0.0,0.0,49,0.00,,CLR,0.00,VWS V14.01,2013-01-24 05:00:00,
2013-01-24 00:01:00,-20.6,-33.7,30.16,North,357,0.0,0.0,49,0.00,,CLR,0.00,VWS V14.01,2013-01-24 05:01:00,
2013-01-24 00:02:00,-20.6,-33.7,30.16,North,357,0.0,0.0,49,0.00,,CLR,0.00,VWS V14.01,2013-01-24 05:02:00,
2013-01-24 00:07:00,-20.6,-33.7,30.16,North,357,0.0,0.0,49,0.00,,CLR,0.00,VWS V14.01,2013-01-24 05:07:00,
2013-01-24 00:12:00,-20.7,-33.9,30.16,North,357,0.0,0.0,49,0.00,,CLR,0.00,VWS V14.01,2013-01-24 05:12:00,
2013-01-24 00:17:00,-20.7,-33.9,30.16,North,357,0.0,0.0,49,0.00,,CLR,0.00,VWS V14.01,2013-01-24 05:17:00,
2013-01-24 00:22:00,-20.9,-34.1,30.16,North,357,0.0,0.0,49,0.00,,CLR,0.00,VWS V14.01,2013-01-24 05:22:00,
2013-01-24 00:27:00,-21.1,-34.2,30.16,North,0,0.0,0.0,49,0.00,,CLR,0.00,VWS V14.01,2013-01-24 05:27:00,
2013-01-24 00:32:00,-21.1,-34.2,30.16,North,357,0.0,0.0,49,0.00,,CLR,0.00,VWS V14.01,2013-01-24 05:32:00,
2013-01-24 00:37:00,-21.5,-34.6,30.16,North,2,0.0,0.0,49,0.00,,CLR,0.00,VWS V14.01,2013-01-24 05:37:00,
2013-01-24 00:42:00,-21.5,-34.6,30.16,North,0,0.0,0.0,49,0.00,,SCT028,0.00,VWS V14.01,2013-01-24 05:42:00,
2013-01-24 00:47:00,-21.6,-34.8,30.16,North,0,0.0,0.0,49,0.00,,SCT028,0.00,VWS V14.01,2013-01-24 05:47:00,
2013-01-24 00:52:00,-21.6,-34.8,30.16,North,0,0.0,0.0,49,0.00,,SCT028,0.00,VWS V14.01,2013-01-24 05:52:00,
2013-01-24 00:57:00,-21.8,-34.9,30.16,North,0,0.0,0.0,49,0.00,,SCT028,0.00,VWS V14.01,2013-01-24 05:57:00,
2013-01-24 01:02:00,-21.8,-34.9,30.16,North,357,0.0,0.0,49,0.00,,SCT028,0.00,VWS V14.01,2013-01-24 06:02:00,
2013-01-24 01:07:00,-22.0,-35.1,30.16,North,357,0.0,0.0,49,0.00,,SCT028,0.00,VWS V14.01,2013-01-24 06:07:00,
2013-01-24 01:12:00,-22.0,-35.1,30.16,North,357,0.0,0.0,49,0.00,,SCT028,0.00,VWS V14.01,2013-01-24 06:12:00,
2013-01-24 01:17:00,-22.0,-35.1,30.16,North,357,0.0,0.0,49,0.00,,SCT028,0.00,VWS V14.01,2013-01-24 06:17:00,
2013-01-24 01:23:00,-22.2,-35.2,30.16,North,357,0.0,0.0,49,0.00,,SCT028,0.00,VWS V14.01,2013-01-24 06:23:00,
2013-01-24 01:28:00,-22.2,-35.2,30.16,North,357,0.0,0.0,49,0.00,,SCT028,0.00,VWS V14.01,2013-01-24 06:28:00,
2013-01-24 01:33:00,-22.2,-35.2,30.16,North,357,0.0,0.0,49,0.00,,SCT028,0.00,VWS V14.01,2013-01-24 06:33:00,
2013-01-24 01:38:00,-22.5,-35.6,30.16,North,357,0.0,0.0,49,0.00,,SCT028,0.00,VWS V14.01,2013-01-24 06:38:00,
2013-01-24 01:43:00,-22.7,-35.8,30.16,North,357,0.0,0.0,49,0.00,,CLR,0.00,VWS V14.01,2013-01-24 06:43:00,
2013-01-24 01:48:00,-22.7,-35.8,30.16,North,357,0.0,0.0,49,0.00,,CLR,0.00,VWS V14.01,2013-01-24 06:48:00,
2013-01-24 01:53:00,-22.7,-35.8,30.16,North,357,0.0,0.0,49,0.00,,CLR,0.00,VWS V14.01,2013-01-24 06:53:00,
2013-01-24 01:58:00,-22.7,-35.8,30.16,North,357,0.0,0.0,49,0.00,,CLR,0.00,VWS V14.01,2013-01-24 06:58:00,
2013-01-24 02:03:00,-22.9,-35.9,30.16,North,357,0.0,0.0,49,0.00,,CLR,0.00,VWS V14.01,2013-01-24 07:03:00,
2013-01-24 02:08:00,-22.9,-35.9,30.16,North,357,0.0,0.0,49,0.00,,CLR,0.00,VWS V14.01,2013-01-24 07:08:00,
2013-01-24 02:13:00,-23.1,-36.1,30.16,North,357,0.0,0.0,49,0.00,,CLR,0.00,VWS V14.01,2013-01-24 07:13:00,
2013-01-24 02:18:00,-23.1,-36.1,30.16,North,357,0.0,0.0,49,0.00,,CLR,0.00,VWS V14.01,2013-01-24 07:18:00,
2013-01-24 02:23:00,-23.4,-36.4,30.16,North,357,0.0,0.0,49,0.00,,CLR,0.00,VWS V14.01,2013-01-24 07:23:00,
2013-01-24 02:28:00,-23.4,-36.4,30.16,North,357,0.0,0.0,49,0.00,,CLR,0.00,VWS V14.01,2013-01-24 07:28:00,
2013-01-24 02:33:00,-23.4,-36.4,30.16,North,357,0.0,0.0,49,0.00,,CLR,0.00,VWS V14.01,2013-01-24 07:33:00,
2013-01-24 02:38:00,-23.4,-36.4,30.16,North,357,0.0,0.0,49,0.00,,CLR,0.00,VWS V14.01,2013-01-24 07:38:00,
2013-01-24 02:43:00,-23.4,-36.4,30.16,North,357,0.0,0.0,49,0.00,,CLR,0.00,VWS V14.01,2013-01-24 07:43:00,
2013-01-24 02:48:00,-23.6,-36.6,30.16,North,2,0.0,0.0,49,0.00,,CLR,0.00,VWS V14.01,2013-01-24 07:48:00,
2013-01-24 02:53:00,-23.6,-36.6,30.16,North,2,0.0,0.0,49,0.00,,CLR,0.00,VWS V14.01,2013-01-24 07:53:00,
2013-01-24 02:58:00,-23.6,-36.6,30.16,North,0,0.0,0.0,49,0.00,,CLR,0.00,VWS V14.01,2013-01-24 07:58:00,
2013-01-24 03:03:00,-23.6,-36.6,30.16,North,2,0.0,0.0,49,0.00,,CLR,0.00,VWS V14.01,2013-01-24 08:03:00,
2013-01-24 03:08:00,-23.8,-36.8,30.16,North,357,0.0,0.0,49,0.00,,CLR,0.00,VWS V14.01,2013-01-24 08:08:00,
2013-01-24 03:13:00,-23.8,-36.8,30.16,North,0,0.0,0.0,49,0.00,,CLR,0.00,VWS V14.01,2013-01-24 08:13:00,
2013-01-24 03:18:00,-24.0,-36.9,30.16,North,2,0.0,0.0,49,0.00,,CLR,0.00,VWS V14.01,2013-01-24 08:18:00,
2013-01-24 03:23:00,-24.0,-36.9,30.16,North,357,0.0,0.0,49,0.00,,CLR,0.00,VWS V14.01,2013-01-24 08:23:00,
2013-01-24 03:28:00,-24.2,-37.1,30.16,North,0,0.0,0.0,49,0.00,,CLR,0.00,VWS V14.01,2013-01-24 08:28:00,
2013-01-24 03:33:00,-24.2,-37.1,30.16,North,0,0.0,0.0,49,0.00,,CLR,0.00,VWS V14.01,2013-01-24 08:33:00,
2013-01-24 03:38:00,-24.2,-37.1,30.16,North,2,0.0,0.0,49,0.00,,CLR,0.00,VWS V14.01,2013-01-24 08:38:00,
2013-01-24 03:43:00,-24.2,-37.1,30.16,North,2,0.0,0.0,49,0.00,,FEW019,0.00,VWS V14.01,2013-01-24 08:43:00,
2013-01-24 03:48:00,-24.2,-37.1,30.16,North,357,0.0,0.0,49,0.00,,FEW019,0.00,VWS V14.01,2013-01-24 08:48:00,
2013-01-24 03:53:00,-24.5,-37.4,30.16,North,0,0.0,0.0,49,0.00,,FEW019,0.00,VWS V14.01,2013-01-24 08:53:00,
2013-01-24 03:59:00,-24.5,-37.4,30.16,North,357,0.0,0.0,49,0.00,,FEW019,0.00,VWS V14.01,2013-01-24 08:59:00,
2013-01-24 04:04:00,-24.7,-37.6,30.16,North,2,0.0,0.0,49,0.00,,FEW019,0.00,VWS V14.01,2013-01-24 09:04:00,
2013-01-24 04:09:00,-24.7,-37.6,30.16,North,357,0.0,0.0,49,0.00,,FEW019,0.00,VWS V14.01,2013-01-24 09:09:00,
2013-01-24 04:14:00,-24.7,-37.6,30.16,North,0,0.0,0.0,49,0.00,,FEW019,0.00,VWS V14.01,2013-01-24 09:14:00,
2013-01-24 04:19:00,-24.7,-37.6,30.16,North,357,0.0,0.0,49,0.00,,FEW019,0.00,VWS V14.01,2013-01-24 09:19:00,
2013-01-24 04:24:00,-24.7,-37.6,30.16,North,2,0.0,0.0,49,0.00,,FEW019,0.00,VWS V14.01,2013-01-24 09:24:00,
2013-01-24 04:29:00,-24.9,-37.8,30.16,North,0,0.0,0.0,49,0.00,,FEW019,0.00,VWS V14.01,2013-01-24 09:29:00,
2013-01-24 04:34:00,-24.9,-37.8,30.16,North,2,0.0,0.0,49,0.00,,FEW019,0.00,VWS V14.01,2013-01-24 09:34:00,
2013-01-24 04:39:00,-24.9,-37.8,30.19,North,2,0.0,0.0,49,0.00,,FEW019,0.00,VWS V14.01,2013-01-24 09:39:00,
2013-01-24 04:44:00,-24.9,-37.8,30.19,North,357,0.0,0.0,49,0.00,,CLR,0.00,VWS V14.01,2013-01-24 09:44:00,
2013-01-24 04:49:00,-24.9,-37.8,30.19,North,357,0.0,0.0,49,0.00,,CLR,0.00,VWS V14.01,2013-01-24 09:49:00,
2013-01-24 04:54:00,-24.7,-37.6,30.19,North,357,0.0,0.0,49,0.00,,CLR,0.00,VWS V14.01,2013-01-24 09:54:00,
2013-01-24 04:59:00,-24.7,-37.6,30.19,North,357,0.0,0.0,49,0.00,,CLR,0.00,VWS V14.01,2013-01-24 09:59:00,
2013-01-24 05:04:00,-24.7,-37.6,30.19,North,357,0.0,0.0,49,0.00,,CLR,0.00,VWS V14.01,2013-01-24 10:04:00,
2013-01-24 05:09:00,-24.7,-37.6,30.19,North,357,0.0,0.0,49,0.00,,CLR,0.00,VWS V14.01,2013-01-24 10:09:00,
2013-01-24 05:14:00,-24.7,-37.6,30.19,North,0,0.0,0.0,49,0.00,,CLR,0.00,VWS V14.01,2013-01-24 10:14:00,
2013-01-24 05:19:00,-24.5,-37.4,30.19,North,2,0.0,0.0,49,0.00,,CLR,0.00,VWS V14.01,2013-01-24 10:19:00,
2013-01-24 05:24:00,-24.5,-37.4,30.19,North,0,0.0,0.0,49,0.00,,CLR,0.00,VWS V14.01,2013-01-24 10:24:00,
2013-01-24 05:29:00,-24.5,-37.4,30.19,North,2,0.0,0.0,49,0.00,,CLR,0.00,VWS V14.01,2013-01-24 10:29:00,
2013-01-24 05:34:00,-24.5,-37.4,30.19,North,357,0.0,0.0,49,0.00,,CLR,0.00,VWS V14.01,2013-01-24 10:34:00,
2013-01-24 05:39:00,-24.9,-37.8,30.19,North,357,0.0,0.0,49,0.00,,CLR,0.00,VWS V14.01,2013-01-24 10:39:00,
2013-01-24 05:44:00,-24.9,-37.8,30.19,North,0,0.0,0.0,49,0.00,,SCT017,0.00,VWS V14.01,2013-01-24 10:44:00,
2013-01-24 05:49:00,-24.9,-37.8,30.19,North,357,0.0,0.0,49,0.00,,SCT017,0.00,VWS V14.01,2013-01-24 10:49:00,
2013-01-24 05:54:00,-24.9,-37.8,30.19,North,357,0.0,0.0,49,0.00,,SCT017,0.00,VWS V14.01,2013-01-24 10:54:00,
2013-01-24 05:59:00,-24.9,-37.8,30.19,North,357,0.0,0.0,49,0.00,,SCT017,0.00,VWS V14.01,2013-01-24 10:59:00,
2013-01-24 06:04:00,-24.9,-37.8,30.19,North,2,0.0,0.0,49,0.00,,SCT017,0.00,VWS V14.01,2013-01-24 11:04:00,
2013-01-24 06:09:00,-24.9,-37.8,30.19,North,357,0.0,0.0,49,0.00,,SCT017,0.00,VWS V14.01,2013-01-24 11:09:00,
2013-01-24 06:14:00,-25.1,-37.9,30.19,North,0,0.0,0.0,49,0.00,,SCT017,0.00,VWS V14.01,2013-01-24 11:14:00,
2013-01-24 06:19:00,-25.1,-37.9,30.19,North,357,0.0,0.0,49,0.00,,SCT017,0.00,VWS V14.01,2013-01-24 11:19:00,
2013-01-24 06:24:00,-25.1,-37.9,30.19,North,357,0.0,0.0,49,0.00,,SCT017,0.00,VWS V14.01,2013-01-24 11:24:00,
2013-01-24 06:29:00,-25.1,-37.9,30.19,North,357,0.0,0.0,49,0.00,,SCT017,0.00,VWS V14.01,2013-01-24 11:29:00,
2013-01-24 06:34:00,-25.1,-37.9,30.19,North,357,0.0,0.0,49,0.00,,SCT017,0.00,VWS V14.01,2013-01-24 11:34:00,
2013-01-24 06:39:00,-25.1,-37.9,30.19,North,357,0.0,0.0,49,0.00,,SCT017,0.00,VWS V14.01,2013-01-24 11:39:00,
2013-01-24 06:44:00,-25.1,-37.9,30.19,North,357,0.0,0.0,49,0.00,,CLR,0.00,VWS V14.01,2013-01-24 11:44:00,
2013-01-24 06:49:00,-25.1,-37.9,30.19,North,357,0.0,0.0,49,0.00,,CLR,0.00,VWS V14.01,2013-01-24 11:49:00,
2013-01-24 06:54:00,-25.1,-37.9,30.19,North,357,0.0,0.0,49,0.00,,CLR,0.00,VWS V14.01,2013-01-24 11:54:00,
2013-01-24 06:59:00,-25.1,-37.9,30.22,North,357,0.0,0.0,49,0.00,,CLR,0.00,VWS V14.01,2013-01-24 11:59:00,
2013-01-24 07:05:00,-25.2,-38.1,30.22,North,357,0.0,0.0,49,0.00,,CLR,0.00,VWS V14.01,2013-01-24 12:05:00,
2013-01-24 07:11:00,-25.2,-38.1,30.22,North,357,0.0,0.0,49,0.00,,CLR,0.00,VWS V14.01,2013-01-24 12:11:00,
2013-01-24 07:16:00,-25.2,-38.1,30.22,North,357,0.0,0.0,49,0.00,,CLR,0.00,VWS V14.01,2013-01-24 12:16:00,
2013-01-24 07:21:00,-25.6,-38.4,30.22,North,357,0.0,0.0,49,0.00,,CLR,0.00,VWS V14.01,2013-01-24 12:21:00,
2013-01-24 07:26:00,-25.6,-38.4,30.22,North,357,0.0,0.0,49,0.00,,CLR,0.00,VWS V14.01,2013-01-24 12:26:00,
2013-01-24 07:31:00,-25.2,-38.1,30.22,North,357,0.0,0.0,49,0.00,,CLR,0.00,VWS V14.01,2013-01-24 12:31:00,
2013-01-24 07:36:00,-25.1,-37.9,30.22,North,357,0.0,0.0,49,0.00,,CLR,0.00,VWS V14.01,2013-01-24 12:36:00,
2013-01-24 07:42:00,-24.9,-37.8,30.22,North,357,0.0,0.0,49,0.00,,CLR,0.00,VWS V14.01,2013-01-24 12:42:00,
2013-01-24 07:46:00,-24.7,-37.6,30.22,North,357,0.0,0.0,49,0.00,,CLR,0.00,VWS V14.01,2013-01-24 12:46:00,
2013-01-24 07:51:00,-24.7,-37.6,30.22,North,357,0.0,0.0,49,0.00,,CLR,0.00,VWS V14.01,2013-01-24 12:51:00,
2013-01-24 07:56:00,-24.5,-37.4,30.22,North,357,0.0,0.0,49,0.00,,CLR,0.00,VWS V14.01,2013-01-24 12:56:00,
2013-01-24 08:02:00,-24.5,-37.4,30.25,North,357,0.0,0.0,49,0.00,,CLR,0.00,VWS V14.01,2013-01-24 13:02:00,
2013-01-24 08:07:00,-24.0,-36.9,30.25,North,357,0.0,0.0,49,0.00,,CLR,0.00,VWS V14.01,2013-01-24 13:07:00,
2013-01-24 08:11:00,-24.0,-36.9,30.25,North,357,0.0,0.0,49,0.00,,CLR,0.00,VWS V14.01,2013-01-24 13:11:00,
2013-01-24 08:16:00,-23.6,-36.6,30.25,North,357,0.0,0.0,49,0.00,,CLR,0.00,VWS V14.01,2013-01-24 13:16:00,
2013-01-24 08:21:00,-23.4,-36.4,30.25,North,357,0.0,0.0,49,0.00,,CLR,0.00,VWS V14.01,2013-01-24 13:21:00,
2013-01-24 08:27:00,-23.1,-36.1,30.25,North,1,0.0,0.0,49,0.00,,CLR,0.00,VWS V14.01,2013-01-24 13:27:00,
2013-01-24 08:31:00,-22.7,-35.8,30.25,North,2,0.0,0.0,49,0.00,,CLR,0.00,VWS V14.01,2013-01-24 13:31:00,
2013-01-24 08:36:00,-22.7,-35.8,30.25,North,0,0.0,0.0,49,0.00,,CLR,0.00,VWS V14.01,2013-01-24 13:36:00,
2013-01-24 08:42:00,-22.0,-35.1,30.25,North,357,0.0,0.0,49,0.00,,CLR,0.00,VWS V14.01,2013-01-24 13:42:00,
2013-01-24 08:47:00,-22.0,-35.1,30.25,North,357,0.0,0.0,49,0.00,,CLR,0.00,VWS V14.01,2013-01-24 13:47:00,
2013-01-24 08:52:00,-20.9,-34.1,30.25,North,357,0.0,0.0,49,0.00,,CLR,0.00,VWS V14.01,2013-01-24 13:52:00,
2013-01-24 08:57:00,-20.9,-34.1,30.25,North,2,0.0,0.0,49,0.00,,CLR,0.00,VWS V14.01,2013-01-24 13:57:00,
2013-01-24 09:02:00,-20.9,-34.1,30.25,North,2,0.0,0.0,49,0.00,,CLR,0.00,VWS V14.01,2013-01-24 14:02:00,
2013-01-24 09:07:00,-20.9,-34.1,30.25,North,2,0.0,0.0,49,0.00,,CLR,0.00,VWS V14.01,2013-01-24 14:07:00,
2013-01-24 09:12:00,-20.9,-34.1,30.25,North,2,0.0,0.0,49,0.00,,CLR,0.00,VWS V14.01,2013-01-24 14:12:00,
2013-01-24 09:17:00,-20.9,-34.1,30.25,North,1,0.0,0.0,49,0.00,,CLR,0.00,VWS V14.01,2013-01-24 14:17:00,
2013-01-24 09:22:00,-18.2,-31.6,30.28,North,357,0.0,0.0,49,0.00,,CLR,0.00,VWS V14.01,2013-01-24 14:22:00,
2013-01-24 09:27:00,-18.2,-31.6,30.28,North,357,0.0,0.0,49,0.00,,CLR,0.00,VWS V14.01,2013-01-24 14:27:00,
2013-01-24 09:32:00,-18.2,-31.6,30.28,North,357,0.0,0.0,49,0.00,,CLR,0.00,VWS V14.01,2013-01-24 14:32:00,
2013-01-24 09:37:00,-18.2,-31.6,30.28,North,2,0.0,0.0,49,0.00,,CLR,0.00,VWS V14.01,2013-01-24 14:37:00,
2013-01-24 09:42:00,-18.2,-31.6,30.28,North,2,0.0,0.0,49,0.00,,CLR,0.00,VWS V14.01,2013-01-24 14:42:00,
2013-01-24 09:47:00,-18.2,-31.6,30.28,North,0,0.0,0.0,49,0.00,,CLR,0.00,VWS V14.01,2013-01-24 14:47:00,
2013-01-24 09:52:00,-13.0,-26.7,30.28,North,357,0.0,0.0,49,0.00,,CLR,0.00,VWS V14.01,2013-01-24 14:52:00,
2013-01-24 09:57:00,-13.0,-26.7,30.28,North,0,0.0,0.0,49,0.00,,CLR,0.00,VWS V14.01,2013-01-24 14:57:00,
2013-01-24 10:02:00,-13.0,-26.7,30.28,North,2,0.0,0.0,49,0.00,,CLR,0.00,VWS V14.01,2013-01-24 15:02:00,
2013-01-24 10:07:00,-13.0,-26.7,30.28,North,1,0.0,0.0,49,0.00,,CLR,0.00,VWS V14.01,2013-01-24 15:07:00,
2013-01-24 10:12:00,-10.1,-24.0,30.28,North,2,0.0,0.0,49,0.00,,CLR,0.00,VWS V14.01,2013-01-24 15:12:00,
2013-01-24 10:17:00,-8.9,-22.9,30.28,North,2,0.0,0.0,49,0.00,,CLR,0.00,VWS V14.01,2013-01-24 15:17:00,
2013-01-24 10:22:00,-8.0,-22.0,30.28,SSE,154,0.0,0.0,49,0.00,,CLR,0.00,VWS V14.01,2013-01-24 15:22:00,
2013-01-24 10:27:00,-8.0,-22.0,30.28,SE,146,2.2,2.2,49,0.00,,CLR,0.00,VWS V14.01,2013-01-24 15:27:00,
2013-01-24 10:32:00,-6.3,-20.5,30.28,North,357,3.6,3.6,49,0.00,,CLR,0.00,VWS V14.01,2013-01-24 15:32:00,
2013-01-24 10:37:00,-6.3,-20.5,30.28,WSW,258,0.0,0.0,49,0.00,,CLR,0.00,VWS V14.01,2013-01-24 15:37:00,
2013-01-24 10:42:00,-5.1,-19.3,30.28,SW,226,5.4,5.4,49,0.00,,CLR,0.00,VWS V14.01,2013-01-24 15:42:00,
2013-01-24 10:47:00,-3.8,-18.2,30.28,South,172,2.7,2.7,49,0.00,,CLR,0.00,VWS V14.01,2013-01-24 15:47:00,
2013-01-24 10:52:00,-3.3,-17.7,30.28,North,353,0.0,5.4,49,0.00,,CLR,0.00,VWS V14.01,2013-01-24 15:52:00,
2013-01-24 10:57:00,-1.8,-16.3,30.28,NW,305,6.3,6.3,49,0.00,,CLR,0.00,VWS V14.01,2013-01-24 15:57:00,
2013-01-24 11:02:00,-1.8,-16.3,30.28,WNW,286,0.0,0.0,49,0.00,,CLR,0.00,VWS V14.01,2013-01-24 16:02:00,
2013-01-24 11:07:00,0.3,-14.3,30.28,SSE,157,2.7,2.7,49,0.00,,CLR,0.00,VWS V14.01,2013-01-24 16:07:00,
2013-01-24 11:12:00,1.8,-13.0,30.28,SSE,160,6.3,6.3,49,0.00,,CLR,0.00,VWS V14.01,2013-01-24 16:12:00,
2013-01-24 11:17:00,2.1,-12.6,30.28,North,9,0.0,0.0,49,0.00,,CLR,0.00,VWS V14.01,2013-01-24 16:17:00,
2013-01-24 11:22:00,2.1,-12.6,30.28,WNW,296,5.8,5.8,49,0.00,,CLR,0.00,VWS V14.01,2013-01-24 16:22:00,
2013-01-24 11:27:00,1.6,-13.1,30.28,North,357,3.1,5.4,49,0.00,,CLR,0.00,VWS V14.01,2013-01-24 16:27:00,
2013-01-24 11:32:00,1.2,-13.5,30.28,NNW,337,8.3,8.3,49,0.00,,CLR,0.00,VWS V14.01,2013-01-24 16:32:00,
2013-01-24 11:37:00,1.2,-13.5,30.28,NNW,342,5.8,5.8,49,0.00,,CLR,0.00,VWS V14.01,2013-01-24 16:37:00,
2013-01-24 11:42:00,1.0,-13.6,30.28,WSW,249,5.4,5.4,49,0.00,,CLR,0.00,VWS V14.01,2013-01-24 16:42:00,
2013-01-24 11:47:00,1.2,-13.5,30.28,SSE,156,4.0,4.0,49,0.00,,CLR,0.00,VWS V14.01,2013-01-24 16:47:00,
2013-01-24 11:52:00,1.0,-13.6,30.28,WNW,292,2.7,5.4,49,0.00,,CLR,0.00,VWS V14.01,2013-01-24 16:52:00,
2013-01-24 11:57:00,0.7,-14.0,30.28,WNW,296,7.6,7.6,49,0.00,,CLR,0.00,VWS V14.01,2013-01-24 16:57:00,
2013-01-24 12:02:00,0.7,-14.0,30.28,WSW,245,3.1,7.6,49,0.00,,CLR,0.00,VWS V14.01,2013-01-24 17:02:00,
2013-01-24 12:07:00,0.7,-14.0,30.28,WSW,249,8.3,8.3,49,0.00,,CLR,0.00,VWS V14.01,2013-01-24 17:07:00,
2013-01-24 12:12:00,0.7,-14.0,30.28,SSW,207,4.0,5.8,49,0.00,,CLR,0.00,VWS V14.01,2013-01-24 17:12:00,
2013-01-24 12:17:00,1.0,-13.6,30.25,SSW,207,4.0,4.0,49,0.00,,CLR,0.00,VWS V14.01,2013-01-24 17:17:00,
2013-01-24 12:22:00,1.0,-13.6,30.25,SSE,168,4.0,4.0,49,0.00,,CLR,0.00,VWS V14.01,2013-01-24 17:22:00,
2013-01-24 12:27:00,0.9,-13.8,30.25,SSE,168,4.0,4.0,49,0.00,,CLR,0.00,VWS V14.01,2013-01-24 17:27:00,
2013-01-24 12:33:00,1.2,-13.5,30.25,South,175,4.9,4.9,49,0.00,,CLR,0.00,VWS V14.01,2013-01-24 17:33:00,
2013-01-24 12:38:00,1.2,-13.5,30.25,South,173,5.8,5.8,49,0.00,,CLR,0.00,VWS V14.01,2013-01-24 17:38:00,
2013-01-24 12:43:00,1.8,-13.0,30.25,SSE,168,5.4,5.4,49,0.00,,CLR,0.00,VWS V14.01,2013-01-24 17:43:00,
2013-01-24 12:48:00,1.8,-13.0,30.25,South,188,3.1,3.1,49,0.00,,CLR,0.00,VWS V14.01,2013-01-24 17:48:00,
2013-01-24 12:53:00,2.1,-12.6,30.25,South,188,3.1,3.1,49,0.00,,CLR,0.00,VWS V14.01,2013-01-24 17:53:00,
2013-01-24 12:58:00,2.3,-12.5,30.25,North,10,3.6,3.6,49,0.00,,CLR,0.00,VWS V14.01,2013-01-24 17:58:00,
2013-01-24 13:03:00,2.5,-12.3,30.25,North,10,3.6,3.6,49,0.00,,CLR,0.00,VWS V14.01,2013-01-24 18:03:00,
2013-01-24 13:08:00,2.5,-12.3,30.25,NNW,344,5.8,5.8,49,0.00,,CLR,0.00,VWS V14.01,2013-01-24 18:08:00,
2013-01-24 13:13:00,2.5,-12.3,30.25,SSW,193,4.9,5.8,49,0.00,,CLR,0.00,VWS V14.01,2013-01-24 18:13:00,
2013-01-24 13:18:00,2.7,-12.1,30.25,WNW,294,4.0,4.0,49,0.00,,CLR,0.00,VWS V14.01,2013-01-24 18:18:00,
2013-01-24 13:23:00,2.7,-12.1,30.25,SSW,209,0.0,0.0,49,0.00,,CLR,0.00,VWS V14.01,2013-01-24 18:23:00,
2013-01-24 13:28:00,3.9,-11.0,30.25,SSW,193,3.6,3.6,49,0.00,,CLR,0.00,VWS V14.01,2013-01-24 18:28:00,
2013-01-24 13:33:00,4.5,-10.5,30.25,SW,227,2.7,2.7,49,0.00,,CLR,0.00,VWS V14.01,2013-01-24 18:33:00,
2013-01-24 13:38:00,4.5,-10.5,30.25,WSW,250,3.6,3.6,49,0.00,,CLR,0.00,VWS V14.01,2013-01-24 18:38:00,
2013-01-24 13:43:00,5.0,-10.0,30.25,SW,230,5.4,5.4,49,0.00,,CLR,0.00,VWS V14.01,2013-01-24 18:43:00,
2013-01-24 13:48:00,5.0,-10.0,30.25,NW,314,3.6,5.4,49,0.00,,CLR,0.00,VWS V14.01,2013-01-24 18:48:00,
2013-01-24 13:53:00,5.4,-9.6,30.25,South,178,8.1,8.1,49,0.00,,CLR,0.00,VWS V14.01,2013-01-24 18:53:00,
2013-01-24 13:58:00,6.1,-9.0,30.25,WSW,238,0.0,0.0,49,0.00,,CLR,0.00,VWS V14.01,2013-01-24 18:58:00,
2013-01-24 14:03:00,6.1,-9.0,30.25,West,278,5.4,5.4,49,0.00,,CLR,0.00,VWS V14.01,2013-01-24 19:03:00,
2013-01-24 14:08:00,6.1,-9.0,30.25,NW,325,3.6,3.6,49,0.00,,CLR,0.00,VWS V14.01,2013-01-24 19:08:00,
2013-01-24 14:13:00,6.1,-9.0,30.25,SSE,159,3.6,3.6,49,0.00,,CLR,0.00,VWS V14.01,2013-01-24 19:13:00,
2013-01-24 14:18:00,6.1,-9.0,30.25,NW,325,5.4,5.4,49,0.00,,CLR,0.00,VWS V14.01,2013-01-24 19:18:00,
2013-01-24 14:23:00,6.1,-9.0,30.25,SW,226,5.4,5.4,49,0.00,,CLR,0.00,VWS V14.01,2013-01-24 19:23:00,
2013-01-24 14:28:00,5.9,-9.1,30.25,SW,226,5.4,5.4,49,0.00,,CLR,0.00,VWS V14.01,2013-01-24 19:28:00,
2013-01-24 14:33:00,5.7,-9.3,30.25,West,273,6.7,6.7,49,0.00,,CLR,0.00,VWS V14.01,2013-01-24 19:33:00,
2013-01-24 14:38:00,5.4,-9.6,30.25,West,273,6.7,6.7,49,0.00,,CLR,0.00,VWS V14.01,2013-01-24 19:38:00,
2013-01-24 14:43:00,5.2,-9.8,30.25,North,357,6.3,6.3,49,0.00,,CLR,0.00,VWS V14.01,2013-01-24 19:43:00,
2013-01-24 14:48:00,5.2,-9.8,30.28,SW,231,7.6,7.6,49,0.00,,CLR,0.00,VWS V14.01,2013-01-24 19:48:00,
2013-01-24 14:53:00,4.6,-10.3,30.28,SW,231,7.6,7.6,49,0.00,,CLR,0.00,VWS V14.01,2013-01-24 19:53:00,
2013-01-24 14:58:00,4.5,-10.5,30.28,SE,143,3.1,3.1,49,0.00,,CLR,0.00,VWS V14.01,2013-01-24 19:58:00,
2013-01-24 15:03:00,4.5,-10.5,30.28,South,183,3.1,3.1,49,0.00,,CLR,0.00,VWS V14.01,2013-01-24 20:03:00,
2013-01-24 15:08:00,4.6,-10.3,30.28,WNW,297,4.0,4.0,49,0.00,,CLR,0.00,VWS V14.01,2013-01-24 20:08:00,
2013-01-24 15:13:00,4.6,-10.3,30.28,WNW,297,4.0,4.0,49,0.00,,CLR,0.00,VWS V14.01,2013-01-24 20:13:00,
2013-01-24 15:18:00,4.5,-10.5,30.28,NW,320,4.9,4.9,49,0.00,,CLR,0.00,VWS V14.01,2013-01-24 20:18:00,
2013-01-24 15:23:00,4.5,-10.5,30.28,South,181,4.0,4.0,49,0.00,,CLR,0.00,VWS V14.01,2013-01-24 20:23:00,
2013-01-24 15:28:00,4.5,-10.5,30.28,SW,214,4.9,4.9,49,0.00,,CLR,0.00,VWS V14.01,2013-01-24 20:28:00,
2013-01-24 15:33:00,4.1,-10.8,30.28,SSW,199,5.4,5.4,49,0.00,,CLR,0.00,VWS V14.01,2013-01-24 20:33:00,
2013-01-24 15:38:00,4.1,-10.8,30.28,SSW,199,5.4,5.4,49,0.00,,CLR,0.00,VWS V14.01,2013-01-24 20:38:00,
2013-01-24 15:43:00,3.7,-11.1,30.28,South,187,3.1,3.1,49,0.00,,CLR,0.00,VWS V14.01,2013-01-24 20:43:00,
2013-01-24 15:48:00,3.7,-11.1,30.28,NE,53,4.0,4.0,49,0.00,,CLR,0.00,VWS V14.01,2013-01-24 20:48:00,
2013-01-24 15:53:00,3.6,-11.3,30.28,NE,53,4.0,4.0,49,0.00,,CLR,0.00,VWS V14.01,2013-01-24 20:53:00,
2013-01-24 15:58:00,3.6,-11.3,30.28,SSW,205,7.2,7.2,49,0.00,,CLR,0.00,VWS V14.01,2013-01-24 20:58:00,
2013-01-24 16:03:00,3.2,-11.6,30.28,SSW,205,7.2,7.2,49,0.00,,CLR,0.00,VWS V14.01,2013-01-24 21:03:00,
2013-01-24 16:08:00,3.2,-11.6,30.28,SSE,152,3.1,3.1,49,0.00,,CLR,0.00,VWS V14.01,2013-01-24 21:08:00,
2013-01-24 16:13:00,3.2,-11.6,30.28,SSE,152,3.1,3.1,49,0.00,,CLR,0.00,VWS V14.01,2013-01-24 21:13:00,
2013-01-24 16:18:00,3.2,-11.6,30.31,WSW,243,0.0,0.0,49,0.00,,CLR,0.00,VWS V14.01,2013-01-24 21:18:00,
2013-01-24 16:24:00,3.2,-11.6,30.31,WSW,243,0.0,0.0,49,0.00,,CLR,0.00,VWS V14.01,2013-01-24 21:24:00,
2013-01-24 16:28:00,3.0,-11.8,30.31,WSW,243,0.0,0.0,49,0.00,,CLR,0.00,VWS V14.01,2013-01-24 21:28:00,
2013-01-24 16:33:00,3.0,-11.8,30.31,WSW,243,0.0,0.0,49,0.00,,CLR,0.00,VWS V14.01,2013-01-24 21:33:00,
2013-01-24 16:38:00,3.0,-11.8,30.31,WSW,243,0.0,0.0,49,0.00,,CLR,0.00,VWS V14.01,2013-01-24 21:38:00,
2013-01-24 16:44:00,1.9,-12.8,30.31,WSW,243,0.0,0.0,49,0.00,,CLR,0.00,VWS V14.01,2013-01-24 21:44:00,
2013-01-24 16:49:00,1.9,-12.8,30.31,WSW,243,0.0,0.0,49,0.00,,CLR,0.00,VWS V14.01,2013-01-24 21:49:00,
2013-01-24 16:54:00,1.2,-13.5,30.31,WSW,243,0.0,0.0,49,0.00,,CLR,0.00,VWS V14.01,2013-01-24 21:54:00,
2013-01-24 16:59:00,1.2,-13.5,30.31,WSW,243,0.0,0.0,49,0.00,,CLR,0.00,VWS V14.01,2013-01-24 21:59:00,
2013-01-24 17:04:00,1.2,-13.5,30.31,WSW,243,0.0,0.0,49,0.00,,CLR,0.00,VWS V14.01,2013-01-24 22:04:00,
2013-01-24 17:09:00,0.7,-14.0,30.31,WSW,243,0.0,0.0,49,0.00,,CLR,0.00,VWS V14.01,2013-01-24 22:09:00,
2013-01-24 17:14:00,0.7,-14.0,30.31,WSW,243,0.0,0.0,49,0.00,,CLR,0.00,VWS V14.01,2013-01-24 22:14:00,
2013-01-24 17:19:00,0.3,-14.3,30.34,WSW,243,0.0,0.0,49,0.00,,CLR,0.00,VWS V14.01,2013-01-24 22:19:00,
2013-01-24 17:24:00,0.3,-14.3,30.34,WSW,243,0.0,0.0,49,0.00,,CLR,0.00,VWS V14.01,2013-01-24 22:24:00,
2013-01-24 17:29:00,-0.2,-14.8,30.34,WSW,243,0.0,0.0,49,0.00,,CLR,0.00,VWS V14.01,2013-01-24 22:29:00,
2013-01-24 17:34:00,-0.2,-14.8,30.34,WSW,243,0.0,0.0,49,0.00,,SCT100,0.00,VWS V14.01,2013-01-24 22:34:00,
2013-01-24 17:39:00,-0.4,-15.0,30.34,WSW,243,0.0,0.0,49,0.00,,SCT100,0.00,VWS V14.01,2013-01-24 22:39:00,
2013-01-24 17:44:00,-0.6,-15.1,30.34,WSW,243,0.0,0.0,49,0.00,,SCT100,0.00,VWS V14.01,2013-01-24 22:44:00,
2013-01-24 17:49:00,-0.8,-15.3,30.34,WSW,243,0.0,0.0,49,0.00,,SCT100,0.00,VWS V14.01,2013-01-24 22:49:00,
2013-01-24 17:54:00,-0.9,-15.5,30.34,WSW,243,0.0,0.0,49,0.00,,SCT100,0.00,VWS V14.01,2013-01-24 22:54:00,
2013-01-24 17:59:00,-0.9,-15.5,30.34,WSW,243,0.0,0.0,49,0.00,,SCT100,0.00,VWS V14.01,2013-01-24 22:59:00,
2013-01-24 18:04:00,-1.3,-15.8,30.34,WSW,243,0.0,0.0,49,0.00,,SCT100,0.00,VWS V14.01,2013-01-24 23:04:00,
2013-01-24 18:09:00,-1.5,-16.0,30.34,WSW,243,0.0,0.0,49,0.00,,SCT100,0.00,VWS V14.01,2013-01-24 23:09:00,
2013-01-24 18:14:00,-1.5,-16.0,30.34,WSW,243,0.0,0.0,49,0.00,,SCT100,0.00,VWS V14.01,2013-01-24 23:14:00,
2013-01-24 18:19:00,-1.7,-16.2,30.34,South,186,2.7,2.7,49,0.00,,SCT100,0.00,VWS V14.01,2013-01-24 23:19:00,
2013-01-24 18:24:00,-1.7,-16.2,30.34,South,186,2.7,2.7,49,0.00,,SCT100,0.00,VWS V14.01,2013-01-24 23:24:00,
2013-01-24 18:29:00,-1.8,-16.3,30.34,South,186,2.7,2.7,49,0.00,,SCT100,0.00,VWS V14.01,2013-01-24 23:29:00,
2013-01-24 18:34:00,-1.8,-16.3,30.34,SSE,157,4.0,4.0,49,0.00,,SCT100,0.00,VWS V14.01,2013-01-24 23:34:00,
2013-01-24 18:39:00,-1.8,-16.3,30.34,SW,220,0.0,0.0,49,0.00,,SCT100,0.00,VWS V14.01,2013-01-24 23:39:00,
2013-01-24 18:44:00,-1.8,-16.3,30.34,WSW,238,0.0,0.0,49,0.00,,BKN095,0.00,VWS V14.01,2013-01-24 23:44:00,
2013-01-24 18:49:00,-1.8,-16.3,30.34,WSW,238,0.0,0.0,49,0.00,,BKN095,0.00,VWS V14.01,2013-01-24 23:49:00,
2013-01-24 18:54:00,-1.8,-16.3,30.34,WSW,238,0.0,0.0,49,0.00,,BKN095,0.00,VWS V14.01,2013-01-24 23:54:00,
2013-01-24 18:59:00,-1.8,-16.3,30.34,South,184,0.0,0.0,49,0.00,,BKN095,0.00,VWS V14.01,2013-01-24 23:59:00,
2013-01-24 19:04:00,-3.6,-18.0,30.37,South,183,0.0,0.0,49,0.00,,BKN095,0.00,VWS V14.01,2013-01-25 00:04:00,
2013-01-24 19:09:00,-3.8,-18.2,30.37,South,184,0.0,0.0,49,0.00,,BKN095,0.00,VWS V14.01,2013-01-25 00:09:00,
2013-01-24 19:14:00,-3.8,-18.2,30.37,South,184,0.0,0.0,49,0.00,,OVC110,0.00,VWS V14.01,2013-01-25 00:14:00,
2013-01-24 19:19:00,-4.2,-18.5,30.37,South,183,0.0,0.0,49,0.00,,OVC110,0.00,VWS V14.01,2013-01-25 00:19:00,
2013-01-24 19:24:00,-4.2,-18.5,30.37,South,184,0.0,0.0,49,0.00,,OVC110,0.00,VWS V14.01,2013-01-25 00:24:00,
2013-01-24 19:29:00,-4.2,-18.5,30.37,South,184,0.0,0.0,49,0.00,,OVC110,0.00,VWS V14.01,2013-01-25 00:29:00,
2013-01-24 19:34:00,-4.2,-18.5,30.37,SSE,160,0.0,2.2,49,0.00,,OVC110,0.00,VWS V14.01,2013-01-25 00:34:00,
2013-01-24 19:39:00,-4.2,-18.5,30.37,SSE,160,0.0,0.0,49,0.00,,OVC110,0.00,VWS V14.01,2013-01-25 00:39:00,
2013-01-24 19:44:00,-4.2,-18.5,30.37,SSE,160,0.0,0.0,49,0.00,,OVC110,0.00,VWS V14.01,2013-01-25 00:44:00,
2013-01-24 19:49:00,-4.2,-18.5,30.37,SSE,161,0.0,0.0,49,0.00,,OVC110,0.00,VWS V14.01,2013-01-25 00:49:00,
2013-01-24 19:54:00,-4.7,-19.0,30.37,SSE,161,0.0,0.0,49,0.00,,OVC110,0.00,VWS V14.01,2013-01-25 00:54:00,
2013-01-24 19:59:00,-4.9,-19.2,30.37,SSE,161,0.0,0.0,49,0.00,,OVC110,0.00,VWS V14.01,2013-01-25 00:59:00,
2013-01-24 20:04:00,-4.9,-19.2,30.37,SSE,160,0.0,0.0,49,0.00,,OVC110,0.00,VWS V14.01,2013-01-25 01:04:00,
2013-01-24 20:09:00,-4.9,-19.2,30.37,SSE,160,0.0,0.0,49,0.00,,OVC110,0.00,VWS V14.01,2013-01-25 01:09:00,
2013-01-24 20:14:00,-4.9,-19.2,30.37,SSE,160,0.0,0.0,49,0.00,,OVC110,0.00,VWS V14.01,2013-01-25 01:14:00,
2013-01-24 20:19:00,-5.1,-19.3,30.37,SSE,160,0.0,0.0,49,0.00,,OVC110,0.00,VWS V14.01,2013-01-25 01:19:00,
2013-01-24 20:24:00,-5.1,-19.3,30.37,SSE,160,0.0,0.0,49,0.00,,OVC110,0.00,VWS V14.01,2013-01-25 01:24:00,
2013-01-24 20:29:00,-5.1,-19.3,30.37,SW,219,0.0,0.0,49,0.00,,OVC110,0.00,VWS V14.01,2013-01-25 01:29:00,
2013-01-24 20:34:00,-5.1,-19.3,30.37,SW,219,0.0,0.0,49,0.00,,OVC110,0.00,VWS V14.01,2013-01-25 01:34:00,
2013-01-24 20:39:00,-5.1,-19.3,30.37,SW,219,0.0,0.0,49,0.00,,OVC110,0.00,VWS V14.01,2013-01-25 01:39:00,
2013-01-24 20:44:00,-6.2,-20.3,30.37,SW,219,0.0,0.0,49,0.00,,OVC100,0.00,VWS V14.01,2013-01-25 01:44:00,
2013-01-24 20:49:00,-6.2,-20.3,30.37,SW,219,0.0,0.0,49,0.00,,OVC100,0.00,VWS V14.01,2013-01-25 01:49:00,
2013-01-24 20:54:00,-6.2,-20.3,30.37,SW,219,0.0,0.0,49,0.00,,OVC100,0.00,VWS V14.01,2013-01-25 01:54:00,
2013-01-24 20:59:00,-6.2,-20.3,30.37,SW,219,0.0,0.0,49,0.00,,OVC100,0.00,VWS V14.01,2013-01-25 01:59:00,
2013-01-24 21:04:00,-6.2,-20.3,30.37,SW,219,0.0,0.0,49,0.00,,OVC100,0.00,VWS V14.01,2013-01-25 02:04:00,
2013-01-24 21:09:00,-6.2,-20.3,30.37,SW,219,0.0,0.0,49,0.00,,OVC100,0.00,VWS V14.01,2013-01-25 02:09:00,
2013-01-24 21:14:00,-6.2,-20.3,30.37,SW,219,0.0,0.0,49,0.00,,OVC100,0.00,VWS V14.01,2013-01-25 02:14:00,
2013-01-24 21:19:00,-6.2,-20.3,30.37,SW,219,0.0,0.0,49,0.00,,OVC100,0.00,VWS V14.01,2013-01-25 02:19:00,
2013-01-24 21:24:00,-6.2,-20.3,30.37,SW,219,0.0,0.0,49,0.00,,OVC100,0.00,VWS V14.01,2013-01-25 02:24:00,
2013-01-24 21:29:00,-6.2,-20.3,30.37,SW,219,0.0,0.0,49,0.00,,OVC100,0.00,VWS V14.01,2013-01-25 02:29:00,
2013-01-24 21:35:00,-7.1,-21.2,30.37,SW,219,0.0,0.0,49,0.00,,OVC100,0.00,VWS V14.01,2013-01-25 02:35:00,
2013-01-24 21:40:00,-7.1,-21.2,30.37,SW,219,0.0,0.0,49,0.00,,OVC100,0.00,VWS V14.01,2013-01-25 02:40:00,
2013-01-24 21:45:00,-7.1,-21.2,30.37,SW,219,0.0,0.0,49,0.00,,BKN095,0.00,VWS V14.01,2013-01-25 02:45:00,
2013-01-24 21:50:00,-7.1,-21.2,30.37,SW,219,0.0,0.0,49,0.00,,BKN095,0.00,VWS V14.01,2013-01-25 02:50:00,
2013-01-24 21:55:00,-8.5,-22.5,30.37,SW,219,0.0,0.0,49,0.00,,BKN095,0.00,VWS V14.01,2013-01-25 02:55:00,
2013-01-24 22:00:00,-8.5,-22.5,30.37,SW,219,0.0,0.0,49,0.00,,BKN095,0.00,VWS V14.01,2013-01-25 03:00:00,
2013-01-24 22:05:00,-8.5,-22.5,30.37,SW,219,0.0,0.0,49,0.00,,BKN095,0.00,VWS V14.01,2013-01-25 03:05:00,
2013-01-24 22:10:00,-8.5,-22.5,30.37,SW,219,0.0,0.0,49,0.00,,BKN095,0.00,VWS V14.01,2013-01-25 03:10:00,
2013-01-24 22:15:00,-8.5,-22.5,30.40,SW,219,0.0,0.0,49,0.00,,BKN095,0.00,VWS V14.01,2013-01-25 03:15:00,
2013-01-24 22:20:00,-8.5,-22.5,30.40,SW,219,0.0,0.0,49,0.00,,BKN095,0.00,VWS V14.01,2013-01-25 03:20:00,
2013-01-24 22:25:00,-8.5,-22.5,30.40,SW,219,0.0,0.0,49,0.00,,BKN095,0.00,VWS V14.01,2013-01-25 03:25:00,
2013-01-24 22:30:00,-8.5,-22.5,30.40,SW,219,0.0,0.0,49,0.00,,BKN095,0.00,VWS V14.01,2013-01-25 03:30:00,
2013-01-24 22:35:00,-8.5,-22.5,30.40,NW,314,0.0,0.0,49,0.00,,BKN095,0.00,VWS V14.01,2013-01-25 03:35:00,
2013-01-24 22:40:00,-8.5,-22.5,30.40,NW,322,0.0,0.0,49,0.00,,BKN095,0.00,VWS V14.01,2013-01-25 03:40:00,
2013-01-24 22:45:00,-8.5,-22.5,30.40,NNW,338,0.0,0.0,49,0.00,,CLR,0.00,VWS V14.01,2013-01-25 03:45:00,
2013-01-24 22:50:00,-11.2,-25.0,30.40,NNW,339,0.0,0.0,49,0.00,,CLR,0.00,VWS V14.01,2013-01-25 03:50:00,
2013-01-24 22:55:00,-11.2,-25.0,30.40,NNW,339,0.0,0.0,49,0.00,,CLR,0.00,VWS V14.01,2013-01-25 03:55:00,
2013-01-24 23:00:00,-11.2,-25.0,30.40,NNW,339,0.0,0.0,49,0.00,,CLR,0.00,VWS V14.01,2013-01-25 04:00:00,
2013-01-24 23:05:00,-11.2,-25.0,30.40,NNW,339,0.0,0.0,49,0.00,,CLR,0.00,VWS V14.01,2013-01-25 04:05:00,
2013-01-24 23:10:00,-11.2,-25.0,30.40,NNW,339,0.0,0.0,49,0.00,,CLR,0.00,VWS V14.01,2013-01-25 04:10:00,
2013-01-24 23:15:00,-12.1,-25.9,30.40,NNW,339,0.0,0.0,49,0.00,,CLR,0.00,VWS V14.01,2013-01-25 04:15:00,
2013-01-24 23:20:00,-12.1,-25.9,30.40,NNW,339,0.0,0.0,49,0.00,,CLR,0.00,VWS V14.01,2013-01-25 04:20:00,
2013-01-24 23:25:00,-12.1,-25.9,30.40,NNW,339,0.0,0.0,49,0.00,,CLR,0.00,VWS V14.01,2013-01-25 04:25:00,
2013-01-24 23:30:00,-12.5,-26.2,30.40,NNW,339,0.0,0.0,49,0.00,,CLR,0.00,VWS V14.01,2013-01-25 04:30:00,
2013-01-24 23:35:00,-12.5,-26.2,30.40,NNW,339,0.0,0.0,49,0.00,,CLR,0.00,VWS V14.01,2013-01-25 04:35:00,
2013-01-24 23:40:00,-12.5,-26.2,30.40,NNW,339,0.0,0.0,49,0.00,,CLR,0.00,VWS V14.01,2013-01-25 04:40:00,
2013-01-24 23:45:00,-12.8,-26.5,30.40,NNW,339,0.0,0.0,49,0.00,,CLR,0.00,VWS V14.01,2013-01-25 04:45:00,
2013-01-24 23:50:00,-12.8,-26.5,30.40,NNW,339,0.0,0.0,49,0.00,,CLR,0.00,VWS V14.01,2013-01-25 04:50:00,
2013-01-24 23:55:00,-13.0,-26.7,30.40,NNW,339,0.0,0.0,49,0.00,,CLR,0.00,VWS V14.01,2013-01-25 04:55:00,